[[{"header":{"parameterUnit":"m.s-1","parameterCategory":1,"la1":30.2991,"la2":30.254,"lo1":-89.0895,"lo2":-89.0444,"dy":0.0017,"dx":0.0017,"nx":28,"ny":28,"refTime":"2024-11-29T03:00:00:Z","depth":0,"parameterNumber":2,"parameterNumberName":"U-component_of_WINDS"},"data":[0,0,0,0,0,0,0,0,0,0,0,0,0,0,0,0,0,0,0,0,0,0,0,0,0,0,0,0,0,0,0,0,0,0,0,0,0,0,0,0,0,0,0,0,0,0,0,0,0,0,0,0,0,0,0,0,0,0,-5.0244,-5.0244,0,-5.0301,-5.0301,-5.0302,-5.012,-5.0115,-5.0109,-5.0104,-5.0163,-5.017,-5.0177,0,0,0,0,0,0,0,0,0,0,0,0,0,-4.9977,-4.9983,-5.0244,-5.0244,-5.0245,-5.0301,-5.0301,-5.0302,-5.0121,-5.0114,-5.0108,-5.0101,-5.0161,-5.0169,-5.0177,0,0,0,0,0,0,0,0,0,0,0,0,0,-5.0069,-4.9984,-5.0244,-5.0161,-5.0155,-5.0301,-5.0301,-5.0302,-5.0122,-5.0114,-5.0106,-5.0098,-5.0159,-5.0168,-5.0178,-5.0407,0,0,-5.0209,-5.0214,0,0,0,0,0,0,0,0,-5.0064,-5.0079,-5.0173,-5.0167,-5.016,-5.0195,-5.0229,-5.0337,-5.0125,-5.0135,-5.0104,-5.0094,-5.0181,-5.0188,-5.0217,-5.0409,-5.0412,-5.021,-5.0216,-5.0221,-5.0223,0,0,0,0,0,0,0,-5.0058,-5.0076,-5.0266,-5.0174,-5.0167,-5.0121,-5.0125,-5.0249,-5.0204,-5.0133,-5.012,-5.0129,-5.0175,-5.0208,-5.0217,-5.0413,-5.021,-5.0219,-5.0225,-5.0229,-5.0793,-5.0801,0,0,0,0,0,0,-5.0062,-5.0072,-5.0264,-5.0268,-5.0091,-5.0133,-5.0137,-5.0192,-5.0202,-5.0195,-5.0136,-5.0121,-5.0195,-5.0206,-5.0219,-5.0485,-5.022,-5.023,-5.0236,-5.0784,-5.0794,-5.0804,0,0,0,0,0,0,-5.0057,-5.0081,-5.0262,-5.0166,-5.0186,-5.0146,-5.0209,-5.0198,-5.023,-5.0204,-5.0195,-5.0178,-5.0189,-5.0205,-5.0361,-5.0485,-5.0234,-5.0244,-5.0773,-5.0787,-5.0799,-5.1022,0,0,0,0,0,0,-5.0051,-5.0081,-5.0168,-5.017,-5.0192,-5.0404,-5.0217,-5.0205,-5.0248,-5.0228,-5.0241,-5.0235,-5.0183,-5.0347,-5.0371,-5.0494,-5.0252,-5.0762,-5.0779,-5.0795,-5.1003,-5.1041,-5.1074,0,0,0,0,0,-5.0042,-5.0229,-5.0173,-5.0197,-5.0299,-5.0412,-5.0424,-5.0361,-5.0258,-5.0345,-5.0328,-5.0234,-5.0467,-5.0364,-5.039,-5.0518,-5.0754,-5.0774,-5.0794,-5.0988,-5.1034,-5.1073,0,0,0,0,0,0,-5.0243,-5.0227,-5.0165,-5.0359,-5.0388,-5.0381,-5.0488,-5.0412,-5.0472,-5.045,-5.0369,-5.0374,-5.0545,-5.0546,-5.0432,-5.0739,-5.0593,-5.0619,-5.0731,-5.0775,-5.081,-5.0806,-5.026,0,0,0,0,0,-5.031,-5.0403,-5.0383,-5.0556,-5.0573,-5.0529,-5.0576,-5.0524,-5.0551,-5.0563,-5.0557,-5.0587,-5.0666,-5.072,-5.0792,-5.1002,-5.1002,-5.1103,-5.1138,-5.1167,-5.1191,-5.1301,-5.1345,-5.087,-5.087,-5.0869,0,0,-5.0449,-5.0452,-5.0516,-5.0596,-5.0613,-5.071,-5.0541,-5.0651,-5.0722,-5.0579,-5.0726,-5.0723,-5.0751,-5.0935,-5.1015,-5.0942,-5.1322,-5.1193,-5.1216,-5.1224,-5.1326,-5.1371,-5.1411,-5.0884,-5.0881,-5.0879,0,0,-5.0752,-5.0764,-5.0908,-5.0928,-5.0954,-5.0923,-5.0958,-5.0962,-5.0954,-5.11,-5.0994,-5.1077,-5.1217,-5.124,-5.1271,-5.1581,-5.1497,-5.1606,-5.1791,-5.1898,-5.1936,-5.1969,-5.2079,-5.2119,-5.163,-5.1631,-5.1631,0,-5.0922,-5.1065,-5.0992,-5.111,-5.1148,-5.1021,-5.1166,-5.1189,-5.1238,-5.1267,-5.1184,-5.1354,-5.1364,-5.1551,-5.1627,-5.1655,-5.1692,-5.1605,-5.1936,-5.1968,-5.1998,-5.2102,-5.2144,-5.1644,-5.1642,-5.1641,-5.164,0,-5.1272,-5.1372,-5.1485,-5.1535,-5.1586,-5.1717,-5.1663,-5.1723,-5.1667,-5.1644,-5.1793,-5.18,-5.1871,-5.1911,-5.1858,-5.209,-5.2043,-5.195,-5.1802,-5.2058,-5.2154,-5.2193,-5.1662,-5.1658,-5.1654,-5.1651,0,0,-5.1706,-5.1712,-5.1755,-5.1775,-5.1794,-5.187,-5.1994,-5.2062,-5.2115,-5.2153,-5.2255,-5.2374,-5.2287,-5.2321,-5.2269,-5.2364,-5.2607,-5.2257,-5.2257,-5.2322,-5.2863,-5.2934,-5.2981,-5.2551,-5.2559,-5.2564,-5.286,0,-5.2004,-5.2217,-5.2154,-5.2367,-5.2458,-5.2339,-5.2446,-5.247,-5.2452,-5.2526,-5.2505,-5.2591,-5.2469,-5.2489,-5.2577,-5.2559,-5.2715,-5.2537,-5.2645,-5.265,-5.2642,-5.3031,-5.3107,-5.3386,-5.2898,-5.2904,-5.2909,0,-5.2381,-5.2432,-5.2655,-5.2657,-5.2693,-5.2791,-5.2847,-5.292,-5.2943,-5.2923,-5.2961,-5.2888,-5.3009,-5.286,-5.3025,-5.2906,-5.2945,-5.2943,-5.2952,-5.296,-5.2795,-5.305,-5.3474,-5.3516,-5.2967,-5.2963,-5.2958,0,-5.2674,-5.2799,-5.2948,-5.2969,-5.2976,-5.3047,-5.3053,-5.3068,-5.3112,-5.3161,-5.3189,-5.3252,-5.3287,-5.3337,-5.3283,-5.3179,-5.3456,-5.3303,-5.3442,-5.3444,-5.3507,-5.3504,-5.3943,-5.3533,-5.3532,-5.3531,-5.3531,0,-5.3014,-5.3155,-5.308,-5.3172,-5.3325,-5.3251,-5.3405,-5.3397,-5.3411,-5.3499,-5.3399,-5.3483,-5.3406,-5.3484,-5.3442,-5.3585,-5.3601,-5.3588,-5.3575,-5.3597,-5.3599,-5.3623,-5.3602,-5.3543,-5.354,-5.3538,-5.3536,0,-5.3369,-5.3324,-5.3478,-5.3471,-5.3472,-5.3586,-5.3579,-5.3663,-5.3636,-5.3749,-5.3771,-5.3729,-5.3815,-5.3765,-5.3853,-5.3825,-5.401,-5.3971,-5.4003,-5.3992,-5.4134,-5.4122,-5.4605,-5.4664,-5.4216,-5.4221,-5.4224,0,-5.3589,-5.3694,-5.3698,-5.3749,-5.3761,-5.3845,-5.3889,-5.382,-5.387,-5.3903,-5.3983,-5.4059,-5.4117,-5.4259,-5.4237,-5.4303,-5.4264,-5.4429,-5.4273,-5.4292,-5.4266,-5.4261,-5.427,-5.446,-5.4466,-5.447,-5.4473,0,-5.3984,-5.3956,-5.4023,-5.4084,-5.4139,-5.4183,-5.4218,-5.4266,-5.4196,-5.4257,-5.4343,-5.4388,-5.4476,-5.4553,-5.4609,-5.4614,-5.4533,-5.4522,-5.4558,-5.4582,-5.4595,-5.4589,-5.4088,-5.4512,-5.4508,-5.4505,-5.4503,-5.4501,-5.4277,-5.4365,-5.438,-5.4458,-5.4477,-5.4513,-5.4591,-5.4573,-5.4643,-5.471,-5.4664,-5.4765,-5.4783,-5.485,-5.4865,-5.4943,-5.4876,-5.4928,-5.4941,-5.4955,-5.4975,-5.4583,-5.4953,-5.4951,-5.495,-5.4949,-5.4948,0,-5.4666,-5.467,-5.4743,-5.4795,-5.4856,-5.4773,-5.4807,-5.4864,-5.4955,-5.4978,-5.5036,-5.5134,-5.5208,-5.5191,-5.5257,-5.5322,-5.5286,-5.5342,-5.5336,-5.5339,-5.5031,-5.4993,-5.5369,-5.5369,-5.5369,-5.5369,-5.5369,-5.5369,-5.4876,-5.5019,-5.4993,-5.5144,-5.5146,-5.5244,-5.5271,-5.5303,-5.5321,-5.5434,-5.5495,-5.5482,-5.549,-5.5555,-5.5618,-5.5611,-5.564,-5.571,-5.5689,-5.5402,-5.536,-5.5321,-5.5285,-5.5716,-5.5717,-5.599,-5.5993,-5.5995]},{"header":{"parameterUnit":"m.s-1","parameterCategory":1,"la1":30.2991,"la2":30.254,"lo1":-89.0895,"lo2":-89.0444,"dy":0.0017,"dx":0.0017,"nx":28,"ny":28,"refTime":"2024-11-29T03:00:00:Z","depth":0,"parameterNumber":3,"parameterNumberName":"V-component_of_WINDS"},"data":[0,0,0,0,0,0,0,0,0,0,0,0,0,0,0,0,0,0,0,0,0,0,0,0,0,0,0,0,0,0,0,0,0,0,0,0,0,0,0,0,0,0,0,0,0,0,0,0,0,0,0,0,0,0,0,0,0,0,-4.4499,-4.4499,0,-4.4557,-4.4558,-4.4559,-4.4505,-4.4503,-4.4501,-4.4499,-4.4556,-4.4559,-4.4563,0,0,0,0,0,0,0,0,0,0,0,0,0,-4.4336,-4.4339,-4.4499,-4.4499,-4.45,-4.4557,-4.4558,-4.4559,-4.4506,-4.4503,-4.45,-4.4498,-4.4555,-4.4559,-4.4563,0,0,0,0,0,0,0,0,0,0,0,0,0,-4.4402,-4.434,-4.4499,-4.4481,-4.448,-4.4557,-4.4558,-4.4559,-4.4506,-4.4503,-4.45,-4.4497,-4.4553,-4.4558,-4.4564,-4.4661,0,0,-4.458,-4.4582,0,0,0,0,0,0,0,0,-4.4398,-4.4408,-4.4482,-4.4482,-4.4481,-4.4521,-4.4521,-4.4593,-4.4507,-4.4496,-4.4499,-4.4495,-4.4547,-4.4552,-4.457,-4.4664,-4.4666,-4.458,-4.4584,-4.4586,-4.4587,0,0,0,0,0,0,0,-4.4393,-4.4405,-4.4522,-4.4484,-4.4483,-4.4468,-4.4474,-4.4535,-4.4539,-4.4497,-4.4493,-4.4501,-4.4545,-4.4565,-4.4571,-4.4667,-4.458,-4.4585,-4.4588,-4.459,-4.484,-4.4843,0,0,0,0,0,0,-4.4391,-4.4401,-4.452,-4.4524,-4.4431,-4.4473,-4.448,-4.4511,-4.4538,-4.4539,-4.4503,-4.4498,-4.4558,-4.4565,-4.4573,-4.4686,-4.4586,-4.4591,-4.4594,-4.4836,-4.4841,-4.4844,0,0,0,0,0,0,-4.4388,-4.4402,-4.4518,-4.4461,-4.4475,-4.448,-4.4515,-4.4514,-4.4534,-4.4543,-4.4543,-4.4523,-4.4556,-4.4565,-4.4639,-4.4688,-4.4593,-4.4598,-4.4832,-4.4838,-4.4842,-4.4916,0,0,0,0,0,0,-4.4384,-4.4402,-4.444,-4.4463,-4.4478,-4.4584,-4.4518,-4.4518,-4.4543,-4.4537,-4.4562,-4.4562,-4.4554,-4.4631,-4.4644,-4.4693,-4.4602,-4.4828,-4.4835,-4.4841,-4.4909,-4.4923,-4.4934,0,0,0,0,0,-4.4378,-4.4458,-4.4442,-4.4457,-4.4527,-4.4587,-4.4596,-4.4585,-4.4548,-4.4585,-4.459,-4.4562,-4.4681,-4.4639,-4.4653,-4.4705,-4.4825,-4.4833,-4.484,-4.4903,-4.492,-4.4934,0,0,0,0,0,0,-4.4441,-4.4461,-4.4443,-4.4534,-4.456,-4.4578,-4.4626,-4.4604,-4.464,-4.4632,-4.4616,-4.4622,-4.4699,-4.4709,-4.4663,-4.4799,-4.4746,-4.4757,-4.4789,-4.4805,-4.4818,-4.4813,-4.4606,0,0,0,0,0,-4.4466,-4.4515,-4.4529,-4.4607,-4.4621,-4.4621,-4.4647,-4.4637,-4.4662,-4.4672,-4.4683,-4.4708,-4.475,-4.4778,-4.4818,-4.491,-4.4913,-4.4952,-4.4965,-4.4975,-4.4985,-4.5031,-4.5047,-4.487,-4.487,-4.487,0,0,-4.4517,-4.4534,-4.4565,-4.462,-4.4639,-4.4688,-4.4631,-4.4686,-4.4721,-4.468,-4.475,-4.4759,-4.4785,-4.4867,-4.4904,-4.4878,-4.5034,-4.4985,-4.4994,-4.4997,-4.504,-4.5057,-4.5072,-4.4875,-4.4874,-4.4873,0,0,-4.4634,-4.4653,-4.4719,-4.4738,-4.4767,-4.4766,-4.4782,-4.4804,-4.4808,-4.4878,-4.4847,-4.4888,-4.4963,-4.4982,-4.5001,-4.5123,-4.5097,-4.5137,-4.5203,-4.5248,-4.5262,-4.5274,-4.5315,-4.5331,-4.5146,-4.5146,-4.5146,0,-4.4693,-4.4768,-4.4756,-4.4812,-4.4836,-4.4801,-4.4866,-4.4885,-4.4925,-4.4941,-4.4912,-4.5003,-4.5018,-4.5103,-4.5132,-4.515,-4.5166,-4.5133,-4.5262,-4.5274,-4.5285,-4.5324,-4.5339,-4.5151,-4.515,-4.515,-4.5149,0,-4.4838,-4.4889,-4.4939,-4.4978,-4.5008,-4.5069,-4.5063,-4.5094,-4.5081,-4.5082,-4.5152,-4.5169,-4.521,-4.523,-4.5217,-4.5312,-4.5295,-4.5264,-4.5211,-4.5306,-4.5342,-4.5357,-4.5157,-4.5156,-4.5154,-4.5153,0,0,-4.4997,-4.5028,-4.5046,-4.5062,-4.509,-4.5129,-4.5186,-4.5227,-4.5253,-4.5281,-4.5327,-4.539,-4.5361,-4.5383,-4.5372,-4.5412,-4.5504,-4.5375,-4.5376,-4.5397,-4.5606,-4.5628,-4.5645,-4.5487,-4.549,-4.5492,-4.5603,0,-4.5114,-4.5215,-4.5205,-4.5301,-4.5346,-4.5313,-4.5363,-4.5384,-4.5387,-4.5425,-4.5427,-4.5471,-4.543,-4.5443,-4.5481,-4.5485,-4.5545,-4.5477,-4.5528,-4.553,-4.552,-4.5665,-4.5689,-4.5792,-4.5617,-4.562,-4.5622,0,-4.5264,-4.5297,-4.5397,-4.5415,-4.5434,-4.5479,-4.5514,-4.5552,-4.5574,-4.5573,-4.5597,-4.5578,-4.5634,-4.558,-4.5655,-4.5609,-4.5629,-4.5634,-4.5637,-4.564,-4.558,-4.5669,-4.5826,-4.584,-4.5644,-4.5642,-4.5641,0,-4.5367,-4.5436,-4.5504,-4.552,-4.5543,-4.5575,-4.5586,-4.5606,-4.563,-4.566,-4.5675,-4.5712,-4.5731,-4.5759,-4.5749,-4.5712,-4.5825,-4.5772,-4.5824,-4.5824,-4.5848,-4.5847,-4.6008,-4.5865,-4.5865,-4.5864,-4.5864,0,-4.5497,-4.5559,-4.5551,-4.5593,-4.566,-4.5646,-4.5713,-4.572,-4.5737,-4.5778,-4.5751,-4.579,-4.5776,-4.5814,-4.5807,-4.5868,-4.5878,-4.5877,-4.5874,-4.5878,-4.5878,-4.589,-4.5881,-4.5868,-4.5868,-4.5867,-4.5866,0,-4.5623,-4.562,-4.5692,-4.5708,-4.5713,-4.5762,-4.5775,-4.5813,-4.5813,-4.5865,-4.5876,-4.5876,-4.5918,-4.5912,-4.5959,-4.5954,-4.603,-4.602,-4.6023,-4.6019,-4.6071,-4.6065,-4.6244,-4.6265,-4.6111,-4.6112,-4.6113,0,-4.5705,-4.5752,-4.5773,-4.5798,-4.5812,-4.5854,-4.5878,-4.5866,-4.5892,-4.5919,-4.5954,-4.5994,-4.6025,-4.6094,-4.6096,-4.6132,-4.612,-4.618,-4.6125,-4.6127,-4.6118,-4.6115,-4.6118,-4.6191,-4.6192,-4.6194,-4.6195,0,-4.5851,-4.5847,-4.5883,-4.5919,-4.5948,-4.5976,-4.6,-4.6022,-4.6012,-4.6042,-4.6085,-4.6109,-4.6157,-4.6196,-4.6228,-4.6238,-4.6214,-4.6212,-4.6226,-4.623,-4.6229,-4.6227,-4.605,-4.6208,-4.6207,-4.6206,-4.6205,-4.6205,-4.5956,-4.5995,-4.6015,-4.6055,-4.6072,-4.6095,-4.6131,-4.6135,-4.6171,-4.6209,-4.6199,-4.6247,-4.6265,-4.6307,-4.632,-4.6356,-4.6333,-4.6354,-4.6358,-4.6363,-4.6368,-4.6225,-4.6362,-4.6361,-4.6361,-4.6361,-4.6361,0,-4.6098,-4.6108,-4.6146,-4.6181,-4.6212,-4.6188,-4.6213,-4.624,-4.6283,-4.6303,-4.6334,-4.6381,-4.6419,-4.6424,-4.6459,-4.6486,-4.6476,-4.6496,-4.6492,-4.6494,-4.6387,-4.6371,-4.6503,-4.6503,-4.6503,-4.6503,-4.6503,-4.6503,-4.6175,-4.6238,-4.6236,-4.6307,-4.6317,-4.6364,-4.638,-4.64,-4.6415,-4.647,-4.6501,-4.6504,-4.6517,-4.6552,-4.6585,-4.6585,-4.6598,-4.6621,-4.6618,-4.6517,-4.6502,-4.6489,-4.6473,-4.6625,-4.6625,-4.6721,-4.6722,-4.6723]}]]